Regional Weather Roundup
Issued by NWS Binghamton, NY

Home | Current Version | Previous Version | Text Only | Print | Product List | Glossary On
Versions: 1 2 3 4 5 6 7 8 9 10 11 12 13 14 15 16 17 18 19 20 21 22 23 24 25 26 27 28 29 30 31 32 33 34 35 36 37 38 39 40 41 42 43 44 45 46 47 48 49 50
246
ASUS41 KBGM 282310
RWRBGM

REGIONAL WEATHER ROUNDUP
NATIONAL WEATHER SERVICE BINGHAMTON NY
700 PM EDT TUE MAR 28 2017

Note: "fair" indicates few or no clouds below 12,000 feet with no
significant weather and/or obstructions to visibility.

* = Station(s) that does not report precipitation, such as rain,
snow, etc, also no thunder or fog.

NYZ009-015>018-022>025-036-037-044>046-055>057-062-290000
...Central New York...

CITY           SKY/WX    TMP DP  RH WIND       PRES   REMARKS
Binghamton     CLOUDY    45  44  97 N14       29.92R
Cortland       DRIZZLE   45  45 100 NW5       29.97R
Dansville      CLOUDY    44  42  93 NW9       30.02R FOG
Elmira         CLOUDY    47  43  86 NE12      29.97R
Seneca Falls   CLOUDY    43  43 100 N7        30.03R
Ithaca         LGT RAIN  43  41  93 NW10      29.99R VSB 3/4
Hamilton       CLOUDY    46  43  87 NW7       29.95R
Monticello     CLOUDY    45  45 100 CALM      29.91R
Norwich        CLOUDY    46  45  93 N3        29.94R
Oneonta        FOG       46  43  87 NW6       29.91R VSB 1/2
Penn Yan       CLOUDY    42  38  85 VRB7      30.01R
Rome           CLOUDY    43  41  93 NW12      29.97R
Sidney         CLOUDY    48  48 100 CALM      29.93R FOG
Syracuse       CLOUDY    42  40  92 W8        29.99R
$$

PAZ038>040-043-044-047-048-072-290000
...Northeast Pennsylvania...

CITY           SKY/WX    TMP DP  RH WIND       PRES   REMARKS
Hazleton       DRZL/FOG  52  50  93 NW3       29.92R VSB 1
Scranton       LGT RAIN  49  48  97 CALM      29.90R
$$
&&
KEY
WCI = Wind Chill Index
VSB = Visibility
HX  = Heat Index
$$




USA.gov is the U.S. government's official web portal to all federal, state and local government web resources and services.